Minchumina, AK

3:26 PM AKST on December 16, 2017 (GMT -0900)
Minchumina

Weather History for PAMH - January, 2014

Change the Weather History Date:

Thursday, January 30, 2014

  Actual Average Record
Temperature  
Mean Temperature 0 °F -  
Max Temperature 3 °F 1 °F 33 °F (2007)
Min Temperature -2 °F -7 °F -40 °F (2006)
Degree Days  
Heating Degree Days 64    
Moisture  
Dew Point -3 °F    
Average Humidity 88    
Maximum Humidity 100    
Minimum Humidity 71    
Precipitation  
Precipitation 0.00 in - - ()
Sea Level Pressure  
Sea Level Pressure 30.16 in    
Wind  
Wind Speed - (North)    
Max Wind Speed -    
Max Gust Speed -    
Visibility 9 miles    
Events      
Averages and records for this station are not official NWS values.
T = Trace of Precipitation, MM = Missing Value Source: NWS Daily Summary

Daily Weather History Graph

Daily Weather History Graph

Search for Another Location

Airport or City:

Trip Planner

Search our weather history database for the weather conditions in past years. The results will help you decide how hot, cold, wet, or windy it might be!

Date:

Astronomy

Jan. 30, 2014 Rise Set
Actual Time 9:52 AM AKST 4:53 PM AKST
Civil Twilight 8:55 AM AKST 5:50 PM AKST
Nautical Twilight 7:56 AM AKST 6:49 PM AKST
Astronomical Twilight 7:01 AM AKST 7:44 PM AKST
Moon 9:05 AM AKST (1/30) 5:45 PM AKST (1/30)
Length of Visible Light 8h 54m
Length of Day
7h 00m
Waning Crescent, 0% of the Moon is Illuminated
Jan 30
Waning Crescent
Jan 30
New
Feb 6
First Quarter
Feb 14
Full
Feb 22
Last Quarter

Hourly Weather History & Observations

Time (AKST) Temp. Dew Point Humidity Pressure Visibility Wind Dir Wind Speed Gust Speed Precip Events Conditions
12:16 AM 1.4 °F -0.4 °F 92% 30.10 in 10.0 mi North - - N/A   Overcast
12:36 AM 1.4 °F -0.4 °F 92% 30.10 in 10.0 mi North - - N/A   Overcast
12:56 AM -0.4 °F -4.0 °F 85% 30.10 in 10.0 mi North - - N/A   Partly Cloudy
1:16 AM -0.4 °F -4.0 °F 85% 30.11 in 7.0 mi North - - N/A   Partly Cloudy
1:36 AM -0.4 °F -2.2 °F 92% 30.11 in 10.0 mi North - - N/A   Partly Cloudy
1:56 AM -0.4 °F -2.2 °F 92% 30.12 in 10.0 mi North - - N/A   Mostly Cloudy
2:16 AM 1.4 °F -0.4 °F 92% 30.12 in 2.5 mi North - - N/A   Overcast
2:36 AM -0.4 °F -7.6 °F 72% 30.12 in 10.0 mi North - - N/A   Mostly Cloudy
2:56 AM -2.2 °F -5.8 °F 85% 30.13 in 10.0 mi North - - N/A   Scattered Clouds
3:16 AM -0.4 °F -2.2 °F 92% 30.13 in 10.0 mi North - - N/A   Mostly Cloudy
3:36 AM -0.4 °F -2.2 °F 92% 30.13 in 10.0 mi North - - N/A   Overcast
3:56 AM -2.2 °F -9.4 °F 71% 30.13 in 10.0 mi North - - N/A   Overcast
4:16 AM -2.2 °F -5.8 °F 85% 30.13 in 10.0 mi North - - N/A   Overcast
4:36 AM -2.2 °F -5.8 °F 85% 30.13 in 10.0 mi North - - N/A   Overcast
4:56 AM -2.2 °F -4.0 °F 92% 30.14 in 10.0 mi North - - N/A   Overcast
5:16 AM -0.4 °F -4.0 °F 85% 30.14 in 10.0 mi North - - N/A   Overcast
5:36 AM -2.2 °F -5.8 °F 85% 30.14 in 10.0 mi North - - N/A   Overcast
5:56 AM -0.4 °F -2.2 °F 92% 30.14 in 10.0 mi North - - N/A   Overcast
6:16 AM -0.4 °F -4.0 °F 85% 30.14 in 10.0 mi North - - N/A   Overcast
6:36 AM -0.4 °F -2.2 °F 92% 30.14 in 10.0 mi North - - N/A   Overcast
6:56 AM -2.2 °F -7.6 °F 78% 30.15 in 3.0 mi North - - N/A   Overcast
7:16 AM -2.2 °F -4.0 °F 92% 30.15 in 10.0 mi North - - N/A   Overcast
7:36 AM -2.2 °F -7.6 °F 78% 30.15 in 10.0 mi North - - N/A   Overcast
7:56 AM -2.2 °F -4.0 °F 92% 30.15 in 10.0 mi North - - N/A   Overcast
8:16 AM -2.2 °F -5.8 °F 85% 30.15 in 10.0 mi North - - N/A   Overcast
8:36 AM -2.2 °F -5.8 °F 85% 30.16 in 10.0 mi North - - N/A   Overcast
8:56 AM -0.4 °F -2.2 °F 92% 30.16 in 3.0 mi North - - N/A   Overcast
9:16 AM -2.2 °F -5.8 °F 85% 30.16 in 0.5 mi North - - N/A   Overcast
9:36 AM -2.2 °F -5.8 °F 85% 30.16 in 7.0 mi North - - N/A   Overcast
9:56 AM -2.2 °F -5.8 °F 85% 30.17 in 10.0 mi North - - N/A   Overcast
10:16 AM -2.2 °F -5.8 °F 85% 30.17 in 10.0 mi North - - N/A   Overcast
10:36 AM -2.2 °F -4.0 °F 92% 30.17 in 5.0 mi North - - N/A   Overcast
10:56 AM -2.2 °F -5.8 °F 85% 30.18 in 0.5 mi North - - N/A   Overcast
11:16 AM -2.2 °F -4.0 °F 92% 30.17 in 5.0 mi North - - N/A   Overcast
11:36 AM -0.4 °F -0.4 °F 100% 30.18 in 10.0 mi North - - N/A   Overcast
11:56 AM -0.4 °F -2.2 °F 92% 30.18 in 10.0 mi North - - N/A   Overcast
12:16 PM -0.4 °F -4.0 °F 85% 30.18 in 10.0 mi North - - N/A   Overcast
12:36 PM -0.4 °F -2.2 °F 92% 30.18 in 10.0 mi North - - N/A   Overcast
12:56 PM -0.4 °F -2.2 °F 92% 30.18 in 10.0 mi North - - N/A   Overcast
1:16 PM -0.4 °F -2.2 °F 92% 30.18 in 10.0 mi North - - N/A   Overcast
1:36 PM -0.4 °F -2.2 °F 92% 30.18 in 4.0 mi North - - N/A   Scattered Clouds
1:56 PM 1.4 °F -0.4 °F 92% 30.18 in 10.0 mi North - - N/A   Clear
2:16 PM 1.4 °F -2.2 °F 85% 30.18 in 10.0 mi North - - N/A   Mostly Cloudy
2:36 PM 1.4 °F 1.4 °F 100% 30.18 in 8.0 mi North - - N/A   Overcast
2:56 PM 1.4 °F -0.4 °F 92% 30.18 in 10.0 mi North - - N/A   Overcast
3:16 PM 3.2 °F 1.4 °F 92% 30.18 in 10.0 mi North - - N/A   Overcast
3:36 PM 3.2 °F -0.4 °F 85% 30.19 in 10.0 mi North - - N/A   Overcast
3:56 PM 1.4 °F -0.4 °F 92% 30.19 in 10.0 mi North - - N/A   Overcast
4:16 PM 1.4 °F -0.4 °F 92% 30.19 in 10.0 mi North - - N/A   Overcast
4:36 PM 1.4 °F -0.4 °F 92% 30.19 in 10.0 mi North - - N/A   Overcast
4:56 PM 1.4 °F -0.4 °F 92% 30.19 in 10.0 mi North - - N/A   Partly Cloudy
5:16 PM 1.4 °F -2.2 °F 85% 30.19 in 10.0 mi North - - N/A   Partly Cloudy
5:36 PM 1.4 °F -2.2 °F 85% 30.19 in 10.0 mi North - - N/A   Mostly Cloudy
5:56 PM 1.4 °F -0.4 °F 92% 30.19 in 10.0 mi North - - N/A   Partly Cloudy
6:16 PM -0.4 °F -5.8 °F 78% 30.19 in 10.0 mi North - - N/A   Clear
6:36 PM -0.4 °F -2.2 °F 92% 30.19 in 10.0 mi North - - N/A   Clear
6:56 PM -0.4 °F -4.0 °F 85% 30.20 in 10.0 mi North - - N/A   Clear
7:16 PM -0.4 °F -2.2 °F 92% 30.20 in 10.0 mi North - - N/A   Mostly Cloudy
7:36 PM -0.4 °F -4.0 °F 85% 30.19 in 10.0 mi North - - N/A   Scattered Clouds
7:56 PM -2.2 °F -7.6 °F 78% 30.19 in 9.0 mi North - - N/A   Clear
8:16 PM -0.4 °F -5.8 °F 78% 30.19 in 10.0 mi North - - N/A   Clear
8:36 PM -0.4 °F -0.4 °F 100% 30.18 in 10.0 mi North - - N/A   Clear
8:56 PM -0.4 °F -4.0 °F 85% 30.19 in 10.0 mi North - - N/A   Clear
9:16 PM -0.4 °F -5.8 °F 78% 30.19 in 10.0 mi North - - N/A   Clear
9:36 PM -0.4 °F -2.2 °F 92% 30.19 in 10.0 mi North - - N/A   Clear
9:56 PM -0.4 °F -2.2 °F 92% 30.19 in 10.0 mi North - - N/A   Clear
10:16 PM -0.4 °F -4.0 °F 85% 30.18 in 10.0 mi North - - N/A   Clear
10:36 PM -0.4 °F -4.0 °F 85% 30.19 in 10.0 mi North - - N/A   Clear
10:56 PM -2.2 °F -5.8 °F 85% 30.19 in 10.0 mi North - - N/A   Clear
11:16 PM -0.4 °F -2.2 °F 92% 30.19 in 10.0 mi North - - N/A   Clear
11:36 PM -0.4 °F -2.2 °F 92% 30.19 in 10.0 mi North - - N/A   Partly Cloudy
11:56 PM -2.2 °F -5.8 °F 85% 30.19 in 10.0 mi North - - N/A   Partly Cloudy